星链-31161 (STARLINK-31161 )

导读

STARLINK-31161是美国太空探索技术公司SpaceX星链互联网星座中的一颗卫星,于2024年1月15日发射入轨。星链计划旨在通过大规模低轨卫星星座,为全球提供高速宽带互联网服务,该卫星的发射延续了星链星座持续组网扩建的进程,进一步完善星座覆盖能力。

Basic Information
目录编号:
58795
目录名称:
STARLINK-31161
国际标识:
2024-012J
轨道中心:
EARTH
卫星名称:
星链-31161
卫星全名:
星链-31161 (STARLINK-31161 )
卫星状态:
在轨 (已飞行970 天)
发射日期:
2024-01-15 UTC
国别 :
美国 (US)
星等 :
--
This satellite is enrolled in the Space Conjunction Data Service (SCDS) and the current flight risk assessment level is: High Risk
Orbit Information
数据来源 国际轨道数据 AOE轨道数据
星历时间 2026-09-11T13:25:43+0800
13小时前
查看轨道信息
2026-09-11T00:00:00+0800
1天前
查看轨道信息
半长轴 6861.182km 6861.193km
偏心率 0.0001293 0.0000053
轨道倾角 43.004° 43.003°
近地点辐角 272.501° 15.912°
升交点赤经 197.245° 200.411°
平近点角 87.570° 143.532°
近地点 482.157km 483.019km
远地点 483.933km 483.093km
周期 94.267分钟 94.267分钟
每日圈数 15.275814 15.275779
Detailed Information
固有亮度:
5
最大亮度:
0.3
卫星平台:
Starlink v2.0 mini
覆盖范围:
全球
运营商:
太空探索技术公司
运营商所在国:
美国
制造商(研发单位):
太空探索技术公司
制造商所在国:
美国
使用方式:
暂无
Satellite Introduction
星链(Starlink)计划是由太空探索技术公司(SpaceX)提出的一个巨型低轨卫星互联网星座项目,计划在2019年至2024年间在太空搭建由约1.2万颗卫星组成的“星链”网络,其中1584颗将部署在地球上空550千米处的近地轨道,并从2020年开始工作。该卫星仍在工作。
2D Orbit Map
3D Orbit Map
Orbit Altitude Analysis Chart
Orbit Inclination Analysis Chart
Orbit Comprehensive Analysis Chart
View Comprehensive Chart
Miss Distance Evolution Trend with All Objects
Collision Probability Evolution Trend with All Objects